Home   Weather   Trujillo   Past weeks

Flag for Peru Past Weather in Trujillo, La Libertad, Peru — Yesterday and Last 2 Weeks

Now
63 °F

Passing clouds.


Feels Like: 63 °F
Forecast: 63 / 73 °F
Wind: 9 mph from Southeast

Location: Trujillo Airport

Current Time: Oct 21, 2017 at 10:13:35 pm

Latest Report: Oct 21, 2017 at 9:25 pm


Visibility: 4 mi

Pressure: 29.92 "Hg

Humidity: 88%

Dew Point: 59 °F

Location of TrujilloLocation

Past Weather in Trujillo — Graph

°F

Trujillo Temperature Yesterday

Maximum temperature yesterday: 66 °F (at 1:00 pm)
Minimum temperature yesterday: 61 °F (at 12:00 am)
Average temperature yesterday: 62 °F

High & Low Weather Summary for the Past Weeks

 TemperatureHumidityPressure
High66 °F (Oct 7, 12:00 pm)100% (Oct 14, 12:00 am)30.04 "Hg (Oct 14, 12:00 am)
Low59 °F (Oct 9, 3:00 am)73% (Oct 7, 12:00 pm)29.80 "Hg (Oct 10, 5:00 pm)
Average62 °F87%29.91 "Hg
* Reported Oct 6 8:00 pm — Oct 21 8:00 pm, Trujillo. Weather by CustomWeather, © 2017

Note: Actual official high and low records may vary slightly from our data, if they occured in-between our weather recording intervals... More about our weather records

Advertising

Trujillo Weather History for the Previous 24 Hours

Scroll right to see more
 ConditionsComfort  
Time TempWeatherWind HumidityBarometerVisibility
8:00 pm
Sat, Oct 21
63 °FClear.8 mph88%29.92 "Hg4 mi
7:00 pm63 °FPassing clouds.8 mph88%29.89 "HgN/A
6:00 pm63 °FPassing clouds.8 mph88%29.86 "HgN/A
5:00 pm64 °FPassing clouds.9 mph83%29.86 "HgN/A
4:00 pm64 °FPassing clouds.10 mph83%29.86 "HgN/A
3:00 pm66 °FPassing clouds.12 mph78%29.86 "HgN/A
2:00 pm66 °FPassing clouds.15 mph78%29.89 "HgN/A
1:00 pm66 °FPassing clouds.12 mph73%29.89 "Hg6 mi
12:00 pm66 °FScattered clouds.12 mph73%29.92 "HgN/A
11:00 am64 °FPartly sunny.13 mph83%29.95 "Hg5 mi
10:00 am64 °FPartly sunny.10 mph83%29.95 "Hg5 mi
9:00 am63 °FOvercast.10 mph88%29.95 "Hg5 mi
8:00 am61 °FLow clouds.8 mph94%29.95 "Hg4 mi
7:00 am61 °FFog.7 mph94%29.92 "Hg3 mi
6:00 am61 °FLow clouds.7 mph94%29.89 "Hg4 mi
5:00 am61 °FFog.6 mph94%29.89 "Hg3 mi
4:00 am61 °FFog.6 mph94%29.86 "Hg3 mi
3:00 am61 °FFog.6 mph88%29.86 "Hg3 mi
2:00 am61 °FFog.7 mph88%29.86 "Hg3 mi
1:00 am61 °FFog.6 mph88%29.89 "Hg3 mi
12:00 am61 °FFog.6 mph88%29.89 "Hg3 mi
11:00 pm
Fri, Oct 20
61 °FFog.6 mph88%29.92 "Hg3 mi
10:00 pm61 °FFog.7 mph88%29.92 "Hg3 mi
Weather by CustomWeather, © 2017

See weather overview